Ocean City, MD

4:25 AM EST on November 18, 2017 (GMT -0500)
Ocean City Municipal

Weather History for KOXB - May, 2013

Change the Weather History Date:

Saturday, May 25, 2013

  Actual Average (KSBY) Record (KSBY)
Temperature  
Mean Temperature 56 °F -  
Max Temperature 64 °F 74 °F 92 °F (1995)
Min Temperature 48 °F 55 °F 37 °F (1956)
Degree Days  
Heating Degree Days 10    
Growing Degree Days 6 (Base 50)    
Moisture  
Dew Point 38 °F    
Average Humidity 54    
Maximum Humidity 69    
Minimum Humidity 37    
Precipitation  
Precipitation 0.00 in - - ()
Sea Level Pressure  
Sea Level Pressure 30.06 in    
Wind  
Wind Speed 12 mph (NW)    
Max Wind Speed 17 mph    
Max Gust Speed 31 mph    
Visibility 10 miles    
Events      
Averages and records for this station are not official NWS values.
T = Trace of Precipitation, MM = Missing Value Source: NWS Daily Summary

Daily Weather History Graph

Daily Weather History Graph

Search for Another Location

Airport or City:

Trip Planner

Search our weather history database for the weather conditions in past years. The results will help you decide how hot, cold, wet, or windy it might be!

Date:

Astronomy

May. 25, 2013 Rise Set
Actual Time 5:41 AM EDT 8:13 PM EDT
Civil Twilight 5:11 AM EDT 8:43 PM EDT
Nautical Twilight 4:33 AM EDT 9:21 PM EDT
Astronomical Twilight 3:51 AM EDT 10:04 PM EDT
Moon 8:59 PM EDT (5/25) 6:06 AM EDT (5/25)
Length of Visible Light 15h 32m
Length of Day
14h 31m
Full, 100% of the Moon is Illuminated
May 25
Full
May 31
Last Quarter
Jun 8
New
Jun 16
First Quarter
Jun 23
Full

Hourly Weather History & Observations

Time (EDT) Temp. Dew Point Humidity Pressure Visibility Wind Dir Wind Speed Gust Speed Precip Events Conditions
12:53 AM 50.0 °F 39.9 °F 68% 30.05 in 10.0 mi NNW 11.5 mph 19.6 mph N/A   Overcast
1:53 AM 48.9 °F 39.0 °F 69% 30.04 in 10.0 mi NW 16.1 mph 24.2 mph N/A   Overcast
2:53 AM 48.9 °F 37.9 °F 66% 30.04 in 10.0 mi NW 13.8 mph 21.9 mph N/A   Overcast
3:53 AM 48.9 °F 37.0 °F 64% 30.04 in 10.0 mi NW 11.5 mph 18.4 mph N/A   Overcast
4:53 AM 48.0 °F 37.0 °F 66% 30.05 in 10.0 mi WNW 8.1 mph - N/A   Overcast
5:53 AM 48.0 °F 36.0 °F 63% 30.06 in 10.0 mi NW 10.4 mph 19.6 mph N/A   Overcast
6:53 AM 48.0 °F 37.0 °F 66% 30.07 in 10.0 mi NW 9.2 mph - N/A   Clear
7:53 AM 51.1 °F 37.9 °F 61% 30.08 in 10.0 mi WNW 13.8 mph 26.5 mph N/A   Clear
8:53 AM 53.1 °F 39.0 °F 59% 30.09 in 10.0 mi WNW 13.8 mph 24.2 mph N/A   Clear
9:53 AM 55.9 °F 39.9 °F 55% 30.07 in 10.0 mi NNW 15.0 mph 24.2 mph N/A   Clear
10:53 AM 57.9 °F 41.0 °F 53% 30.06 in 10.0 mi NW 15.0 mph 26.5 mph N/A   Clear
11:53 AM 59.0 °F 39.9 °F 49% 30.06 in 10.0 mi WNW 15.0 mph 27.6 mph N/A   Clear
12:53 PM 60.1 °F 39.9 °F 47% 30.05 in 10.0 mi WNW 16.1 mph 26.5 mph N/A   Partly Cloudy
1:53 PM 62.1 °F 39.9 °F 44% 30.04 in 10.0 mi WNW 15.0 mph 26.5 mph N/A   Clear
2:53 PM 63.0 °F 37.9 °F 40% 30.05 in 10.0 mi NNW 17.3 mph 28.8 mph N/A   Partly Cloudy
3:53 PM 63.0 °F 37.9 °F 40% 30.05 in 10.0 mi NW 16.1 mph 27.6 mph N/A   Scattered Clouds
4:53 PM 62.1 °F 37.9 °F 41% 30.05 in 10.0 mi NW 12.7 mph 31.1 mph N/A   Mostly Cloudy
5:53 PM 63.0 °F 36.0 °F 37% 30.05 in 10.0 mi NNW 15.0 mph 26.5 mph N/A   Partly Cloudy
6:53 PM 62.1 °F 36.0 °F 38% 30.06 in 10.0 mi NW 15.0 mph 21.9 mph N/A   Clear
7:53 PM 60.1 °F 37.0 °F 42% 30.07 in 10.0 mi WNW 4.6 mph - N/A   Clear
8:53 PM 55.0 °F 39.9 °F 57% 30.08 in 10.0 mi WSW 4.6 mph - N/A   Clear
9:53 PM 54.0 °F 39.9 °F 59% 30.09 in 10.0 mi WSW 5.8 mph - N/A   Clear
10:53 PM 55.0 °F 39.0 °F 55% 30.09 in 10.0 mi West 8.1 mph - N/A   Clear
11:53 PM 54.0 °F 39.9 °F 59% 30.10 in 10.0 mi West 6.9 mph - N/A   Clear